^^
Datos históricos de la estación: Murcia-Puente Tocinos
 
Diario Informe para Enero 23, 2018 Unidades:  Métrico    Inglés   Ambas
« Anterior Día
Siguiente Día »
Diario Semanal Mensual Anual Configurable
  Actual: Máximo: Mínimo: Media:
Temperatura: 15.7 °C 17.6 °C 15.7 °C 16.6 °C
Punto de rocio: 5.6 °C 5.9 °C 5.3 °C 5.5 °C
Humedad: 51% 51% 46% 48%
Velocidad viento: 11.1km/h 16.1km/h 10.0km/h 11.7km/h
Racha viento: 16.7km/h 22.2km/h - -
VientoSouth - - SSO
Presión: 1023.2 hPa 1023.2 hPa 1022.9 hPa -
Precipitación: 0.0 mm      
Historical Graphs
 
 
Tabla de datos para Enero 23, 2018
Hora Temperatura Punto de rocio Presión Viento Velocidad viento Racha viento Humedad Intensidad lluvia(por hora) Nubes
00:02 17.4 °C 5.9 °C 1023.2 hPa SW 16.1 km/h 20.4 km/h 47% 0.0 mm CLR
00:07 17.4 °C 5.7 °C 1023.2 hPa SSW 14.0 km/h 16.7 km/h 46% 0.0 mm CLR
00:12 17.6 °C 5.8 °C 1023.2 hPa SSW 14.0 km/h 14.0 km/h 46% 0.0 mm CLR
00:17 17.6 °C 5.8 °C 1022.9 hPa SW 11.9 km/h 18.5 km/h 46% 0.0 mm CLR
00:22 17.6 °C 5.8 °C 1022.9 hPa SSW 11.9 km/h 18.5 km/h 46% 0.0 mm CLR
00:27 17.5 °C 5.7 °C 1022.9 hPa SSW 12.2 km/h 18.5 km/h 46% 0.0 mm CLR
00:33 17.3 °C 5.6 °C 1023.2 hPa SSW 12.2 km/h 12.2 km/h 46% 0.0 mm CLR
00:38 17.3 °C 5.6 °C 1023.2 hPa South 10.3 km/h 14.8 km/h 46% 0.0 mm CLR
00:43 17.1 °C 5.7 °C 1023.2 hPa SSW 10.3 km/h 20.4 km/h 47% 0.0 mm CLR
00:48 16.8 °C 5.4 °C 1023.2 hPa SSW 10.3 km/h 18.3 km/h 47% 0.0 mm CLR
00:53 16.7 °C 5.6 °C 1023.2 hPa SSW 10.3 km/h 13.0 km/h 48% 0.0 mm CLR
00:58 16.5 °C 5.4 °C 1023.2 hPa SSW 10.3 km/h 14.8 km/h 48% 0.0 mm CLR
01:03 16.4 °C 5.3 °C 1023.2 hPa South 10.3 km/h 16.7 km/h 48% 0.0 mm CLR
01:08 16.3 °C 5.6 °C 1023.2 hPa West 10.0 km/h 13.0 km/h 49% 0.0 mm CLR
01:13 16.3 °C 5.6 °C 1023.2 hPa SSW 10.0 km/h 15.6 km/h 49% 0.0 mm CLR
01:18 16.2 °C 5.4 °C 1023.2 hPa South 10.0 km/h 18.5 km/h 49% 0.0 mm CLR
01:23 16.2 °C 5.4 °C 1023.2 hPa SSW 10.0 km/h 20.4 km/h 49% 0.0 mm CLR
01:28 16.2 °C 5.4 °C 1023.2 hPa South 11.9 km/h 18.5 km/h 49% 0.0 mm CLR
01:33 16.2 °C 5.4 °C 1023.2 hPa SSW 11.9 km/h 20.4 km/h 49% 0.0 mm CLR
01:38 16.1 °C 5.4 °C 1023.2 hPa South 13.0 km/h 20.4 km/h 49% 0.0 mm CLR
01:43 16.1 °C 5.4 °C 1023.2 hPa SW 13.0 km/h 14.8 km/h 49% 0.0 mm CLR
01:48 16.0 °C 5.3 °C 1023.2 hPa SSW 14.0 km/h 22.2 km/h 49% 0.0 mm CLR
01:53 15.9 °C 5.5 °C 1023.2 hPa SSW 14.0 km/h 18.5 km/h 50% 0.0 mm CLR
01:58 15.9 °C 5.5 °C 1023.2 hPa SW 11.9 km/h 18.5 km/h 50% 0.0 mm CLR
02:03 15.9 °C 5.5 °C 1023.2 hPa SSW 11.9 km/h 14.8 km/h 50% 0.0 mm CLR
02:14 15.8 °C 5.4 °C 1023.2 hPa SSW 10.0 km/h 14.8 km/h 50% 0.0 mm CLR
02:19 15.8 °C 5.4 °C 1023.2 hPa SSW 10.0 km/h 16.7 km/h 50% 0.0 mm CLR
02:24 15.7 °C 5.6 °C 1023.2 hPa South 11.1 km/h 16.7 km/h 51% 0.0 mm CLR
Murcia-Puente Tocinos, España
Compliments of Weather Underground - 1.5 mb

La estación de MeteoMurcia.com, publica sus datos en los siguientes proyectos:

Meteoclimatic www.awekas.at

W3Counter
Web Analytics